Regional Weather Roundup
Issued by NWS

Home | Current Version | Previous Version | Graphics & Text | Print | Product List | Glossary On
Versions: 1 2 3 4 5 6 7 8 9 10 11 12 13 14 15 16 17 18 19 20 21 22 23 24 25 26 27 28 29 30 31 32 33 34 35 36 37 38 39 40 41 42 43 44 45 46 47 48 49 50
000
ASUS43 KTOP 210659
RWRKS

WEATHER ROUNDUP FOR KANSAS
NATIONAL WEATHER SERVICE GOODLAND KS
200 AM CDT SAT OCT 21 2017

NOTE:  "FAIR" INDICATES FEW OR NO CLOUDS BELOW 12,000 FEET WITH NO
SIGNIFICANT WEATHER AND/OR OBSTRUCTIONS TO VISIBILITY.

KSZ001>006-013>018-027>032-041>047-210800-
NORTHWEST KANSAS

CITY           SKY/WX    TMP DP  RH WIND       PRES   REMARKS
GOODLAND       CLOUDY    56  44  64 S14       29.50S
HAYS           CLEAR     68  61  78 S29G41    29.57F
HILL CITY      CLEAR     69  59  70 S24G39    29.53F
RUSSELL        PTCLDY    68  64  87 S29G43    29.60S
$$

KSZ061>065-074>080-084>089-210800-
SOUTHWEST KANSAS

CITY           SKY/WX    TMP DP  RH WIND       PRES   REMARKS
DODGE CITY     CLEAR     66  59  78 S26G38    29.65S
ELKHART          N/A     62  52  70 S16         N/A
GARDEN CITY    CLEAR     67  56  67 S26G33    29.60S
GREAT BEND     PTCLDY    68  63  83 S30G40    29.64S
LIBERAL        CLEAR     66  57  72 S22       29.66R
$$

KSZ066>073-081>083-090>101-210800-
SOUTHEAST KANSAS

CITY           SKY/WX    TMP DP  RH WIND       PRES   REMARKS
CHANUTE        CLEAR     65  59  81 S18G26    29.87F
COFFEYVILLE    PTCLDY    65  59  81 S14       29.88F
HUTCHINSON     CLOUDY    69  63  81 S18G32    29.71S
MEDICINE LODGE   N/A     67  61  81 S15G28    29.72S
NEWTON         CLOUDY    68  62  81 S21G30    29.75S
PARSONS        CLEAR     65  58  78 S9        29.89F
WICHITA INTL   MOCLDY    68  63  84 S25G31    29.76S
WICHITA JABRA  MOCLDY    68  63  84 S21G32    29.76F
WICHITA MCCONL PTCLDY    68  60  77 S22G32    29.77F
WINFIELD       CLEAR     68  63  84 S21G30    29.81F
$$

KSZ007>012-019>026-033>040-048>060-102>105-210800-
NORTHEAST KANSAS

CITY           SKY/WX    TMP DP  RH WIND       PRES   REMARKS
CONCORDIA      LGT RAIN  70  63  78 S36G46    29.64S
EMPORIA        CLEAR     64  59  83 S24G32    29.79F
LAWRENCE       CLOUDY    65  60  84 SE20G26   29.82F
MANHATTAN      PTCLDY    69  61  75 S18G31    29.71S
OLATHE IND     PTCLDY    63  57  81 S16       29.86F
OLATHE EXE     PTCLDY    61  57  87 S17G24    29.86F
SALINA         MOCLDY    72  63  73 S25G43    29.68S
TOPEKA BILLARD CLOUDY    67  61  81 S20G28    29.78F
TOPEKA FORBES  MOCLDY    68  61  78 S17G26    29.79F
$$




USA.gov is the U.S. government's official web portal to all federal, state and local government web resources and services.